Wind_Speed
45 45 46 46 46 46 46 46 46 46 46 46 46 47 47 47 48 48 48 49 49 49 50 51 52 53 54 55 56 57 58 58 58 58 58 58 58 58 58 58 58 58 58 59 61 63 64 66 68 70 72 73 74 75 75 77 77 77 76 76 76 77 77 77 77 73 69 70 72 74 75 76 77 78 78 77 77 79 82 84 87 89 92 95 97
46 46 47 47 47 47 47 47 47 48 48 48 48 48 49 49 49 50 50 50 50 50 51 52 53 55 55 56 57 58 58 59 59 59 58 58 58 58 58 58 58 58 59 61 63 64 66 68 70 72 73 74 74 75 76 77 76 76 75 76 76 78 78 77 76 74 70 70 73 75 77 78 80 80 81 81 81 82 84 86 88 90 93 96 99
47 47 47 47 47 48 48 48 49 49 49 49 49 50 50 50 50 50 51 51 51 52 53 54 55 56 57 58 58 58 59 59 59 58 58 58 58 58 58 58 58 60 61 63 64 66 68 70 71 73 74 74 75 76 76 76 75 75 75 76 77 78 78 77 76 75 74 73 74 76 78 80 81 82 83 84 85 86 88 89 90 92 94 97 100
47 47 47 47 48 48 49 50 50 50 50 50 50 51 51 51 51 51 51 51 52 53 55 56 57 57 58 58 58 59 59 59 58 58 58 58 58 58 58 59 60 62 63 64 66 68 70 71 72 73 74 75 75 75 75 74 74 75 76 77 77 76 76 76 76 77 77 76 76 78 81 81 82 84 85 86 88 89 91 92 93 94 97 100 102
47 47 48 48 49 49 50 50 51 51 51 51 51 51 51 51 51 51 52 53 54 55 56 57 57 58 58 58 58 58 58 57 57 57 57 58 58 59 60 61 62 64 65 66 68 69 71 72 73 74 74 75 75 74 74 74 75 76 76 76 76 75 75 76 77 79 80 80 80 81 82 83 84 86 89 90 91 92 92 92 93 96 98 101 103
48 48 49 49 50 50 51 51 51 51 51 51 51 51 51 51 51 52 53 54 55 56 57 57 57 57 57 57 57 57 56 56 56 57 58 59 60 61 62 63 64 65 67 68 70 71 72 73 73 74 74 73 73 73 73 74 75 76 76 75 75 75 76 77 79 80 81 83 84 84 84 85 86 87 90 93 94 95 96 95 94 96 99 101 103
48 49 49 50 50 50 50 50 51 51 51 51 51 50 51 52 52 53 54 55 55 56 56 56 56 56 56 56 56 55 55 56 57 58 59 61 62 63 63 64 66 67 69 70 71 72 72 73 74 74 73 72 72 72 74 75 76 76 75 74 75 75 77 78 80 82 83 85 86 86 86 88 89 90 91 93 95 97 99 99 99 99 101 102 103
48 49 49 49 50 50 50 50 50 50 50 50 50 51 51 52 53 53 54 54 55 55 55 55 55 55 55 55 55 55 56 57 58 60 61 62 63 64 65 66 68 69 70 71 72 73 73 74 74 73 71 71 72 73 74 75 75 75 74 74 75 76 78 80 81 83 85 86 87 87 88 90 92 92 93 94 95 97 99 101 102 103 103 102 102
49 49 49 49 49 49 49 50 50 50 50 50 51 51 52 53 53 53 54 54 54 54 54 54 54 54 55 55 56 56 57 59 60 61 61 62 64 65 67 68 69 70 71 72 73 74 73 73 72 72 71 72 73 74 74 75 74 74 74 75 76 78 79 81 83 84 86 87 88 89 90 92 94 95 95 95 97 98 100 102 103 104 104 103 101
48 48 48 48 49 49 49 49 50 50 50 51 51 52 52 53 53 53 53 52 53 53 53 53 54 54 55 56 57 58 59 59 60 61 62 64 65 67 68 69 71 71 72 73 74 74 73 71 71 72 72 72 73 74 74 74 74 75 75 76 78 80 81 82 84 86 87 88 90 91 92 93 95 96 96 96 97 99 101 103 104 104 104 103 101
48 48 48 49 49 49 50 50 50 50 51 51 52 52 52 52 52 51 51 52 52 52 53 54 55 55 56 57 57 58 59 59 61 62 64 66 67 69 70 71 71 72 73 74 74 73 71 70 71 72 73 72 73 73 74 74 75 76 77 78 80 82 83 84 86 88 88 89 91 93 94 95 95 96 96 97 98 99 101 103 104 104 104 104 102
49 49 49 49 49 50 50 51 51 51 51 51 52 52 51 51 51 51 52 52 53 53 54 54 55 56 56 57 57 58 59 61 62 64 66 67 69 70 70 71 72 73 73 73 72 72 71 71 72 73 73 72 73 73 74 75 76 76 78 80 82 83 85 87 88 89 90 91 93 94 95 95 95 95 97 98 99 100 101 102 103 103 102 102 100
50 50 50 50 50 51 51 51 51 51 51 51 51 51 51 52 52 53 53 53 53 54 54 54 55 55 56 57 58 59 61 63 64 66 67 68 69 70 71 72 73 73 72 71 71 71 72 72 73 73 73 72 73 74 75 76 76 77 79 81 83 85 87 88 89 90 91 92 93 94 94 95 95 96 97 99 100 101 102 102 102 101 99 98 97
49 49 50 50 51 51 51 51 51 51 51 51 52 52 53 54 54 54 53 53 53 53 54 54 55 56 57 58 60 62 63 65 66 67 68 69 70 71 72 72 72 71 70 69 70 71 72 72 73 73 73 73 74 75 75 76 77 78 81 83 84 86 88 89 90 91 92 93 93 93 94 95 96 96 97 98 100 101 102 102 101 99 97 95 93
50 50 50 51 51 51 51 51 51 52 52 53 54 54 55 54 54 53 53 53 53 54 54 55 56 58 59 61 62 64 65 66 67 68 69 70 71 71 72 71 70 69 68 69 71 72 72 73 73 73 74 74 75 75 75 76 78 80 82 84 86 87 89 89 90 91 92 92 92 93 94 95 95 96 97 98 99 100 100 100 100 98 95 91 88
51 51 51 52 52 52 52 52 53 54 54 55 55 55 54 53 53 53 53 53 54 55 56 57 59 60 61 63 64 64 65 66 67 69 70 70 71 71 70 69 68 68 69 70 71 72 72 73 74 74 74 75 75 75 76 77 79 81 83 85 87 88 89 90 90 91 91 91 92 93 93 94 95 96 97 98 98 98 98 98 97 95 92 88 84
52 52 52 53 53 54 54 55 55 56 56 55 55 54 53 53 53 53 54 54 55 56 58 59 60 62 63 63 64 65 66 67 68 69 70 71 70 69 68 68 68 68 69 70 71 72 73 74 75 75 75 75 75 76 77 79 81 82 84 86 87 88 89 89 89 89 90 91 91 92 92 93 94 95 96 97 97 97 97 95 94 92 89 85 82
53 53 54 55 55 56 57 57 57 56 56 55 54 53 53 53 54 54 55 56 57 58 59 60 61 62 63 64 65 66 67 68 69 70 70 69 68 68 68 68 68 68 69 70 71 72 74 75 76 75 75 75 75 76 78 80 82 83 85 86 87 88 89 88 88 89 89 90 90 90 90 91 93 94 95 95 96 96 95 94 92 90 86 83 81
55 55 56 57 57 57 57 56 56 55 54 54 53 54 54 54 55 56 57 58 58 59 60 61 62 63 65 65 66 67 68 69 69 69 69 68 68 68 68 68 68 68 68 70 72 74 75 76 76 75 75 75 76 78 80 82 83 85 86 86 87 87 87 88 88 88 88 88 88 89 89 90 92 92 93 94 94 93 92 91 89 87 83 80 79
56 56 56 56 56 56 55 54 54 54 54 54 54 54 55 55 56 57 58 59 60 61 62 62 64 65 66 66 67 68 68 68 68 68 68 68 68 68 68 68 68 68 69 71 73 74 75 76 75 75 75 75 77 79 81 83 84 86 86 87 87 86 86 87 87 88 87 87 87 88 89 90 90 91 91 91 91 90 89 88 86 84 80 78 77
55 55 55 55 55 54 54 54 54 54 54 54 54 55 56 56 57 58 59 60 61 62 63 64 65 66 67 67 67 67 67 67 67 67 68 68 68 68 67 67 67 68 70 72 74 75 75 75 75 74 75 77 79 81 83 84 85 86 87 87 86 86 86 86 86 86 86 86 86 87 88 88 88 88 88 88 87 86 86 85 83 80 78 76 75
53 53 53 53 53 53 53 53 53 54 54 55 55 56 57 58 59 60 61 61 62 63 64 65 66 66 66 66 66 66 66 67 67 68 68 67 67 67 66 66 67 69 71 73 74 74 74 74 74 75 77 79 81 83 84 85 86 86 86 86 86 86 86 86 85 85 85 85 86 86 87 87 86 86 85 84 83 82 82 81 80 77 75 74 73
50 50 51 51 52 52 53 53 54 54 55 55 56 57 57 58 59 60 60 61 62 63 63 64 64 64 64 65 65 66 67 67 67 67 66 66 66 66 66 66 68 70 72 73 73 73 73 73 75 77 79 81 82 83 84 85 85 85 85 85 86 86 86 85 84 84 84 85 85 86 85 85 85 84 83 82 80 79 79 78 76 74 72 71 70
47 48 49 49 50 50 51 51 52 53 53 54 55 55 56 57 57 58 59 60 61 61 62 62 63 63 64 65 65 66 67 67 66 66 65 65 65 65 65 67 69 71 72 72 72 72 73 75 77 79 80 81 83 84 84 85 85 85 85 86 86 85 85 84 84 84 84 84 85 84 84 84 83 82 82 80 78 77 76 75 72 70 69 68 67
45 46 46 47 48 48 49 49 50 51 52 52 53 54 55 56 57 58 59 59 60 61 62 62 63 64 64 65 65 65 66 65 65 65 65 65 65 65 67 68 69 70 71 72 72 73 75 77 78 79 80 82 83 84 84 84 84 85 86 86 85 85 84 84 84 84 84 84 83 83 82 82 81 81 80 78 76 75 73 71 68 67 66 66 64
45 46 46 47 48 49 49 50 51 52 53 53 54 55 56 57 58 59 60 60 61 61 62 62 63 63 63 63 64 64 64 64 64 65 64 64 65 66 68 68 69 70 71 73 74 75 77 78 79 80 81 82 83 84 84 84 85 85 85 85 84 84 84 84 84 83 83 82 82 80 80 79 79 78 77 75 74 72 70 67 65 63 63 63 62
46 47 48 48 49 50 51 52 53 54 54 55 56 57 58 59 59 60 60 60 61 61 61 61 61 61 62 62 63 64 64 64 64 64 64 65 66 67 68 68 69 71 72 73 75 76 77 78 79 80 81 82 83 84 84 84 84 85 85 84 84 83 84 84 83 82 81 81 79 78 77 76 75 75 74 72 71 70 68 65 62 61 61 61 60
48 48 49 50 51 52 52 53 54 55 56 56 57 57 58 58 59 59 59 59 59 59 59 59 60 60 61 62 63 64 64 63 63 63 64 65 66 67 67 68 70 71 72 74 75 76 77 78 79 80 81 82 83 84 84 84 84 84 84 83 83 83 83 83 82 81 80 78 77 75 74 72 71 71 70 70 69 68 65 62 60 59 59 59 58
49 50 51 52 53 53 54 54 55 55 56 56 56 56 57 57 57 57 57 58 58 58 58 59 60 61 62 62 63 63 63 62 63 64 65 66 66 66 67 69 70 71 73 74 75 76 77 79 79 80 81 82 83 83 83 83 83 83 83 82 82 83 82 82 81 79 78 76 74 73 71 69 68 68 67 67 67 65 62 60 58 58 57 57 56
52 53 53 54 54 55 55 55 55 55 55 55 55 55 56 56 56 56 57 57 57 58 59 59 60 61 62 62 62 62 61 62 63 64 65 65 66 67 68 70 71 73 74 75 76 77 78 79 79 80 80 81 82 83 83 82 83 82 82 81 81 81 81 80 79 78 76 74 72 71 69 67 65 64 64 64 64 63 60 58 56 56 56 56 55
54 54 55 55 55 55 56 56 56 56 55 55 55 55 56 56 56 57 57 58 58 59 59 60 60 61 60 61 61 61 61 61 63 64 65 66 67 68 70 71 73 74 75 76 77 77 78 79 79 79 80 81 82 82 82 82 82 82 81 81 81 81 80 79 79 77 75 72 71 69 67 65 63 61 61 62 62 61 59 57 55 55 54 54 53
53 54 55 55 55 56 56 56 56 56 56 56 56 56 56 57 57 57 58 59 59 59 59 59 59 60 60 60 61 61 62 62 64 65 66 67 69 70 71 73 74 75 76 76 77 78 78 79 79 79 80 80 81 82 82 82 82 81 81 80 80 80 79 79 78 75 73 71 69 67 64 62 60 58 58 59 59 59 57 55 54 53 53 53 52
53 54 55 55 55 56 56 56 56 56 57 57 57 57 57 57 58 58 58 58 58 59 59 59 60 60 61 62 62 63 64 64 66 67 68 69 70 72 73 74 75 76 76 77 77 77 78 79 79 79 80 80 80 81 82 82 82 81 81 80 80 79 79 78 76 74 72 70 67 64 61 59 57 56 55 56 57 57 56 54 53 52 51 51 51
53 54 54 54 55 55 55 56 56 57 57 57 57 57 57 58 58 58 58 58 59 59 60 61 61 62 63 64 64 65 66 66 67 68 70 71 72 73 74 74 75 77 77 77 77 78 78 79 79 79 80 80 80 81 82 82 81 81 80 80 80 79 79 77 75 73 70 68 65 61 58 56 55 53 53 54 55 55 54 53 52 51 50 50 49
54 54 55 55 56 56 56 57 57 57 57 57 58 58 58 58 59 59 59 60 61 61 62 62 63 64 65 65 66 66 67 68 69 70 71 72 74 74 75 75 77 78 78 78 78 78 78 78 79 79 80 80 80 81 82 82 80 79 79 79 79 79 78 76 74 71 68 66 62 59 56 55 53 51 50 52 54 54 53 52 51 50 49 48 48
57 57 58 58 58 58 58 58 58 58 59 59 59 59 59 60 60 61 61 62 62 62 63 64 64 65 65 66 66 67 68 70 71 72 73 74 75 75 76 77 78 78 78 78 78 78 78 78 79 80 80 80 80 80 81 81 79 78 79 79 78 78 77 74 72 69 66 63 60 57 55 54 52 50 49 51 52 52 52 51 50 49 48 47 47
61 61 62 62 62 61 61 60 60 60 60 60 61 61 61 62 62 63 63 63 63 63 64 64 65 65 66 67 68 69 70 72 73 74 74 75 76 76 77 78 78 79 79 79 79 79 79 79 80 80 80 79 79 79 80 80 79 78 78 78 77 76 75 72 70 67 64 63 60 57 54 53 51 48 49 51 51 51 51 50 49 48 47 46 46
64 64 65 65 64 64 63 62 62 62 62 62 63 63 64 64 64 64 64 64 64 65 65 66 67 68 68 69 70 72 73 74 75 75 76 76 77 77 78 78 78 78 79 79 79 80 80 80 80 80 79 79 79 78 79 79 78 78 78 77 76 75 73 70 67 64 63 63 61 56 54 52 49 47 49 50 50 51 51 50 48 47 46 45 44
66 67 67 66 65 65 64 63 64 64 64 65 65 65 65 65 65 65 66 66 67 68 68 69 70 71 71 72 73 74 75 76 77 77 77 78 78 78 78 78 78 79 79 80 81 81 81 80 80 80 79 79 78 78 78 78 78 78 78 77 76 74 71 68 66 64 63 64 62 56 53 51 48 47 48 49 49 50 50 49 48 47 45 44 44
69 69 68 67 66 65 65 65 65 66 66 66 67 67 67 67 68 68 69 70 71 71 72 73 73 74 74 75 76 76 78 78 79 79 79 78 78 79 79 79 79 80 81 82 82 82 81 80 80 80 79 79 78 78 78 77 78 78 77 76 75 72 68 66 66 65 64 65 62 57 53 50 48 47 49 49 49 49 49 48 47 46 45 44 43
70 70 69 68 67 67 66 67 67 67 68 68 69 69 70 70 71 72 73 74 74 75 76 76 76 76 77 77 78 79 80 80 80 80 79 79 79 79 80 80 81 82 82 82 82 82 81 81 80 80 79 79 79 78 78 78 78 77 76 74 73 70 67 67 66 65 66 66 62 57 52 49 47 47 49 49 48 48 48 47 46 45 44 44 43
71 71 70 70 70 69 69 69 69 70 70 71 72 73 74 75 76 77 77 78 78 79 79 79 79 79 79 79 80 81 81 81 81 80 80 79 80 81 81 82 82 83 83 83 82 82 81 81 80 80 80 79 79 79 78 78 77 75 73 72 70 69 68 67 66 66 67 66 61 55 51 48 46 47 49 49 48 48 47 46 46 45 44 44 44
72 72 72 72 72 72 73 73 73 74 75 76 77 78 79 80 81 81 81 81 82 82 81 81 81 81 81 81 82 83 83 82 81 81 80 81 81 81 82 82 83 83 83 83 82 82 82 82 81 81 80 80 79 79 79 77 75 73 72 70 70 69 69 67 66 67 67 63 57 53 50 47 46 48 49 49 48 48 47 46 46 45 44 44 44
74 74 75 75 75 75 76 77 78 79 79 81 81 82 83 83 84 84 84 84 84 84 84 83 83 83 83 83 84 84 83 83 82 82 82 82 82 82 82 83 83 83 83 83 83 82 82 82 82 81 80 80 79 79 77 75 73 71 70 70 70 69 67 67 67 67 63 57 54 51 48 46 47 48 49 49 48 47 47 47 46 45 45 45 45
76 77 77 77 78 79 79 80 81 82 83 83 84 84 85 85 85 86 86 86 86 86 86 86 85 85 85 85 85 84 84 84 83 83 83 83 83 83 83 83 83 83 83 83 83 83 82 82 82 81 80 80 79 77 75 73 71 70 69 69 69 68 66 67 67 63 57 53 51 49 47 46 48 49 49 49 48 47 47 47 46 46 46 46 47
79 79 80 80 81 82 83 83 84 85 85 86 86 86 87 87 87 88 88 88 88 88 88 87 87 86 86 86 86 86 86 85 85 84 84 84 84 84 84 84 84 83 83 83 83 83 82 82 81 81 80 79 77 75 73 72 70 68 67 67 67 67 67 66 62 56 51 50 49 47 47 48 49 49 49 48 47 47 47 47 46 46 47 48 48
82 82 83 83 84 84 85 86 87 87 87 88 88 88 88 89 89 90 90 90 90 90 89 89 89 88 88 88 88 87 87 86 85 85 85 85 85 84 84 84 84 83 83 83 82 82 81 81 80 79 78 76 74 73 72 70 68 67 67 66 67 67 65 60 54 50 49 49 48 47 48 49 49 49 49 48 47 47 47 47 47 48 49 49 50
85 85 85 86 86 87 87 88 88 88 89 89 89 90 90 91 92 92 92 92 92 91 91 91 90 90 89 88 88 87 86 86 85 85 85 85 85 85 84 84 83 83 82 82 81 80 79 78 77 76 75 73 72 71 70 69 67 67 66 65 64 62 58 53 49 49 49 49 48 48 49 49 49 49 49 47 46 47 47 47 48 49 50 51 52
86 86 87 87 88 88 89 89 90 90 91 91 91 92 92 93 94 94 93 93 92 92 91 91 90 89 88 88 87 87 86 86 86 86 85 85 85 85 84 83 82 81 80 79 78 77 76 75 74 73 72 71 70 69 68 67 65 64 63 61 59 56 52 49 48 49 49 49 48 48 48 48 49 49 48 46 46 47 47 48 49 51 52 52 52
88 88 89 89 90 90 91 91 91 92 92 93 93 94 94 94 94 94 93 93 92 91 91 90 89 88 88 87 87 87 87 87 86 86 86 85 85 84 82 81 80 79 78 77 76 75 74 74 73 72 71 70 68 67 66 64 62 61 60 58 54 51 49 48 48 49 49 48 48 47 48 48 49 48 47 46 46 47 48 49 50 52 53 53 52
90 90 91 91 91 92 92 93 93 93 94 95 95 95 94 94 93 93 92 92 91 90 90 89 89 88 88 88 88 88 87 87 86 86 85 84 83 82 81 80 79 78 77 76 76 75 74 73 71 70 69 68 66 65 63 62 60 60 59 56 52 49 48 49 49 49 48 47 47 47 48 48 48 47 46 46 46 47 48 50 51 52 53 52 51
Wind_Direction
259 260 262 263 265 267 269 271 272 273 274 274 275 275 276 276 276 277 278 279 281 282 284 285 285 286 287 288 288 289 289 289 290 291 292 293 293 294 295 295 296 298 300 302 304 304 305 306 307 307 308 309 309 310 310 310 310 311 311 311 312 312 313 314 314 316 317 316 315 315 314 314 314 314 314 315 316 316 316 317 317 317 317 318 318
260 261 262 263 265 267 269 271 272 272 273 273 273 274 274 275 276 277 279 280 282 283 284 284 285 286 286 287 287 288 288 289 290 291 292 292 293 294 294 295 297 299 301 303 304 304 305 306 306 307 308 309 310 310 310 310 310 310 311 311 312 313 313 314 315 316 317 316 315 314 314 315 315 315 315 316 317 317 316 317 318 318 319 319 319
260 261 263 265 266 268 269 270 271 271 271 272 272 273 274 275 276 278 279 280 282 283 283 284 284 285 285 286 286 287 288 289 290 290 291 292 292 293 294 296 298 300 302 303 303 304 305 306 307 307 308 309 310 310 310 310 310 310 311 312 312 313 314 314 315 315 316 316 315 314 315 315 315 316 317 317 318 318 318 318 319 320 320 319 319
261 262 264 265 266 267 268 268 269 269 270 271 272 273 274 275 277 278 280 281 281 282 282 283 283 283 284 285 286 286 287 288 289 290 291 291 292 294 295 297 299 300 302 302 303 304 305 306 307 308 309 309 309 309 309 309 310 311 312 312 313 313 314 314 314 315 315 316 315 315 315 315 316 317 317 318 318 318 319 320 321 321 321 321 321
261 262 263 264 265 266 266 267 268 268 269 270 272 273 274 276 277 278 279 280 280 280 281 281 282 282 283 284 285 286 287 288 289 290 291 292 293 295 296 298 299 300 302 303 304 304 305 306 307 308 309 309 308 309 309 310 310 311 312 312 313 313 313 313 314 315 315 315 315 316 316 317 318 318 318 318 318 318 319 320 321 321 322 323 323
260 261 262 263 264 264 265 266 267 268 269 270 272 273 275 276 277 277 278 278 278 278 279 280 281 282 283 284 285 286 287 288 289 290 291 293 294 295 297 298 299 301 302 303 304 305 306 307 307 308 308 308 308 308 309 310 311 311 311 312 312 313 313 313 314 315 315 315 316 317 317 318 318 318 318 318 319 319 320 320 321 322 324 324 324
259 260 261 262 263 264 265 266 267 268 269 270 272 273 274 275 275 276 276 277 277 278 279 280 281 282 283 284 285 286 288 288 290 291 292 293 294 296 297 298 300 301 302 303 304 305 306 306 307 307 307 307 307 308 309 310 310 311 311 312 312 312 312 313 314 314 315 316 317 318 318 318 318 318 319 319 320 320 320 321 323 325 325 325 325
259 260 261 262 263 264 265 266 267 268 269 271 272 273 274 274 274 275 276 276 277 279 280 281 282 283 284 285 286 287 288 289 290 291 292 294 295 296 297 299 300 301 302 303 304 305 306 306 306 306 306 307 307 308 309 309 309 310 311 311 312 312 312 313 314 314 315 316 317 318 318 318 318 318 319 320 320 320 321 323 325 326 326 326 326
260 261 262 263 264 264 265 266 268 269 270 271 272 272 273 274 274 275 276 277 278 279 281 281 282 283 284 285 286 287 288 289 291 292 293 294 295 297 298 299 300 301 302 303 304 305 305 305 305 306 306 307 308 308 308 309 309 310 311 311 311 312 312 313 314 315 316 317 317 318 318 318 318 319 320 320 321 322 323 325 326 326 327 327 328
260 261 262 263 264 265 266 267 268 269 270 270 271 272 273 273 274 275 276 277 279 280 281 282 283 283 284 285 287 288 289 290 291 293 294 295 296 297 298 300 300 302 302 303 304 304 305 305 305 306 306 307 308 308 308 309 310 311 311 311 311 312 313 314 315 316 317 317 317 318 318 318 319 320 320 321 322 324 325 326 326 327 328 328 329
261 262 263 264 265 266 267 267 268 269 269 270 271 272 272 273 274 276 277 278 280 280 281 282 283 284 285 286 287 288 290 291 292 293 294 295 296 298 299 300 301 302 303 304 304 304 304 305 305 306 307 307 307 308 309 310 311 311 311 312 312 313 314 315 316 316 317 318 318 318 318 319 320 320 321 322 324 325 326 326 327 329 330 330 331
261 262 262 263 264 264 265 266 267 268 269 269 270 271 273 274 275 277 278 279 280 280 281 282 284 285 286 287 288 289 290 291 292 293 294 296 297 298 299 300 301 302 303 303 304 304 305 305 305 306 307 307 308 309 310 310 311 311 312 312 313 314 315 315 316 317 317 318 318 318 319 320 320 321 322 324 325 325 326 327 329 331 332 332 332
260 261 261 261 262 263 264 265 266 267 268 270 271 272 274 275 276 277 278 279 280 281 282 283 284 285 286 287 288 289 290 291 293 294 295 296 297 298 299 300 301 302 303 303 303 304 305 305 305 306 307 308 308 309 310 310 311 312 312 313 314 314 315 316 316 317 317 318 318 319 320 320 321 322 323 324 325 326 327 329 330 332 334 334 333
259 259 260 261 261 262 263 264 266 267 269 271 272 273 274 275 276 277 278 280 281 282 283 284 285 285 286 287 288 289 291 292 293 294 295 296 297 298 299 300 301 302 302 303 304 304 304 305 305 306 307 308 309 309 310 311 311 312 312 313 314 314 315 316 316 317 317 318 319 319 319 320 322 323 324 325 326 327 329 330 332 334 335 335 334
258 259 260 260 261 263 264 265 267 269 270 271 272 273 275 276 277 278 279 280 281 282 283 284 284 285 286 287 289 290 291 292 294 295 296 296 297 298 299 299 300 301 302 303 304 304 304 305 305 306 307 308 308 309 310 310 311 312 312 313 313 314 315 315 316 316 317 318 319 319 320 321 323 324 324 325 327 328 330 332 334 335 336 336 334
258 259 260 261 263 264 265 267 268 270 271 272 273 275 276 277 278 279 279 280 281 281 282 283 284 285 287 288 289 291 292 293 294 294 295 296 297 297 298 299 301 302 303 303 303 304 304 304 304 305 306 307 308 309 309 310 311 311 312 312 313 314 314 315 315 316 317 318 319 320 321 322 323 324 325 326 328 329 332 333 334 335 335 335 334
258 259 261 262 264 265 266 268 269 271 272 274 275 276 277 277 278 278 279 279 280 281 282 283 285 286 287 289 290 291 292 293 293 294 295 295 296 297 298 300 301 302 303 303 303 303 303 303 304 305 306 307 308 309 309 310 310 311 311 312 313 313 314 314 316 317 317 318 319 321 322 322 323 324 326 327 329 330 332 334 334 335 334 334 334
258 260 261 262 264 265 267 269 271 272 274 275 276 276 276 277 277 278 278 279 280 281 283 284 286 287 288 289 290 291 292 292 293 293 294 295 296 297 299 300 301 302 303 303 303 302 301 302 303 305 306 307 308 308 308 309 309 310 311 311 312 312 313 314 315 316 317 319 320 321 322 322 323 325 326 328 330 331 333 334 334 334 334 334 335
260 261 263 264 266 268 270 271 272 273 274 274 275 275 275 276 277 278 279 280 281 283 284 285 286 287 288 289 290 291 291 292 292 293 294 295 297 298 299 300 301 302 302 301 300 300 300 301 303 305 306 307 307 307 307 308 308 309 310 311 311 312 313 314 315 317 318 319 320 321 321 322 323 325 327 329 330 332 333 334 334 334 334 334 335
264 265 267 268 270 271 272 272 273 273 273 274 274 275 276 277 278 279 280 281 283 284 285 285 286 287 288 289 289 290 290 291 291 293 294 295 297 298 299 300 301 301 300 299 298 298 300 302 303 305 305 305 305 305 306 307 308 309 309 310 310 311 313 314 316 317 318 319 320 320 321 322 325 327 329 330 331 332 333 333 334 334 334 334 335
267 268 269 270 271 272 272 273 273 274 274 275 275 276 277 278 279 280 281 282 283 284 284 285 286 286 287 288 288 289 290 290 292 293 294 296 297 298 299 299 299 299 297 297 297 298 300 302 303 303 303 303 303 304 305 306 307 308 309 309 310 312 313 315 316 317 318 319 319 320 321 324 326 328 329 330 331 332 333 333 333 333 333 334 336
268 269 270 271 272 273 273 274 274 274 275 276 276 277 278 278 279 280 281 282 283 283 284 285 285 286 287 287 288 289 290 291 292 293 294 296 297 297 298 298 297 296 295 296 297 299 300 301 301 301 301 302 303 304 305 306 307 308 309 310 311 313 314 315 316 317 318 319 319 320 322 325 327 328 329 330 331 332 332 332 332 332 333 335 336
268 269 269 270 271 272 272 273 274 274 275 276 277 277 278 279 280 280 281 281 282 283 283 284 285 285 286 287 288 289 290 291 292 293 295 295 296 296 297 296 295 294 294 295 297 298 299 299 299 300 301 302 303 304 305 306 307 308 309 310 312 313 315 316 317 317 318 318 319 321 323 325 327 328 328 329 330 331 332 332 332 332 334 335 336
267 267 268 269 270 271 272 273 274 275 276 276 277 278 278 279 279 280 280 281 281 282 283 284 284 285 286 287 288 289 290 291 292 293 293 294 294 295 294 293 292 293 294 295 296 297 297 298 298 300 301 302 303 303 304 305 307 308 309 311 312 314 315 316 317 317 318 319 321 323 324 326 327 327 328 329 330 331 332 332 332 333 334 335 337
267 268 269 270 271 272 273 273 274 275 275 276 276 277 277 278 278 279 279 280 281 282 283 283 284 285 286 287 287 288 289 290 290 291 292 292 293 292 291 290 291 292 293 294 295 296 296 297 299 300 301 302 302 303 305 306 307 309 310 311 313 314 315 316 317 318 319 320 322 323 325 326 326 327 328 329 330 332 332 332 332 333 334 336 337
268 269 270 271 272 272 273 273 274 274 275 275 275 276 277 277 278 279 280 281 281 282 283 283 284 285 285 286 286 287 287 288 289 290 291 291 290 289 289 290 291 291 292 294 295 296 297 298 299 300 301 302 303 304 305 307 308 309 310 312 313 314 315 316 317 318 319 321 323 324 325 325 326 326 327 329 330 332 332 332 333 333 335 336 337
270 270 271 271 272 272 273 274 275 275 276 276 277 277 278 278 279 280 280 280 281 281 282 283 283 284 284 284 285 286 287 288 289 289 289 288 287 288 289 290 291 292 293 294 295 296 297 298 299 301 302 302 303 305 306 307 308 310 311 312 313 314 315 316 317 318 320 322 323 324 324 325 325 325 326 328 330 331 332 332 333 334 335 336 336
271 271 272 273 273 274 275 276 277 277 278 278 278 279 279 279 279 280 279 280 280 281 281 282 282 283 283 284 285 286 287 288 288 287 287 287 288 289 290 291 292 293 294 294 295 297 298 299 300 301 302 303 304 305 306 307 309 310 311 312 313 314 315 315 317 319 321 322 323 323 323 323 323 324 326 327 329 331 332 332 333 334 334 335 336
274 274 275 276 277 277 278 278 278 279 279 279 279 279 279 279 279 279 279 279 280 281 282 282 282 283 284 285 286 287 288 288 288 287 288 289 290 291 291 292 293 294 294 295 296 297 298 299 300 302 303 303 304 305 306 308 309 310 311 312 313 313 314 316 318 320 321 322 322 322 322 322 322 323 325 327 329 331 332 332 333 333 334 335 336
277 278 278 279 279 279 279 279 279 279 279 279 279 279 279 279 279 279 279 280 281 282 283 283 283 284 285 286 286 287 288 288 287 288 289 290 291 291 292 293 293 294 295 296 297 298 299 300 301 302 303 303 304 305 307 308 309 310 311 311 312 313 314 317 318 320 320 321 321 321 320 320 321 322 324 327 329 331 332 332 332 332 333 334 336
279 279 279 279 279 280 280 279 279 279 279 279 279 279 279 280 280 280 280 281 282 282 283 283 284 284 285 286 286 287 287 287 288 289 290 290 291 292 293 293 293 294 295 296 297 298 299 300 301 302 303 303 305 306 306 308 309 309 310 310 311 313 315 316 318 319 319 320 320 319 318 319 320 322 324 326 328 330 331 331 331 332 332 334 336
279 279 279 279 279 279 279 279 279 279 279 279 279 279 279 280 280 280 280 281 282 282 283 284 284 285 286 286 287 288 288 288 289 289 290 291 291 292 292 293 293 294 296 297 298 299 300 301 302 302 303 304 304 305 306 307 308 308 309 310 312 313 314 315 317 317 318 319 319 318 317 317 319 321 323 325 328 329 330 330 330 331 332 333 335
279 279 279 279 279 279 279 279 278 278 278 278 279 279 279 279 280 280 281 282 283 284 284 284 285 285 286 286 287 287 288 288 289 289 290 290 291 291 292 293 294 296 297 298 299 300 301 301 302 302 303 304 304 305 306 307 307 308 309 311 312 312 313 315 316 316 316 317 317 316 315 316 318 320 322 324 327 328 328 328 329 330 331 332 334
280 280 280 280 280 279 279 279 278 278 279 279 279 280 280 280 281 281 282 283 283 284 284 284 284 285 285 286 286 286 287 287 288 289 290 290 291 292 294 295 296 297 298 299 300 301 301 301 302 302 303 303 304 304 305 306 307 308 309 310 311 311 312 314 314 314 315 316 316 315 314 315 317 319 321 323 326 327 327 327 328 329 330 331 333
282 282 282 282 282 281 281 281 280 280 280 280 280 280 281 281 281 282 282 282 282 282 283 283 283 284 284 285 285 286 286 287 288 289 291 292 293 295 296 297 297 298 299 300 300 300 301 301 301 302 302 303 303 303 304 305 307 308 308 309 310 310 311 312 312 312 314 316 316 314 313 314 316 317 319 322 324 325 325 325 326 328 329 330 332
284 284 284 284 283 283 282 282 281 281 280 280 280 280 280 280 280 281 281 281 281 282 282 282 283 283 283 284 285 286 287 288 290 291 293 294 295 296 297 297 297 298 300 300 300 300 301 301 301 301 301 302 302 303 304 305 306 307 307 308 308 309 309 310 310 311 314 316 315 312 311 313 314 315 317 320 322 323 324 324 325 326 328 329 331
284 285 285 284 283 283 282 281 281 280 280 280 279 279 280 280 280 280 281 281 282 282 282 282 282 283 284 285 286 288 290 291 292 294 295 296 296 296 297 297 298 299 300 300 300 300 300 300 300 300 301 301 302 303 303 304 305 305 305 306 306 306 307 307 308 310 313 316 314 310 310 311 312 313 315 318 320 321 322 322 323 324 326 328 330
284 284 284 284 283 282 281 281 280 280 280 280 280 280 280 281 281 282 282 282 282 282 282 282 283 284 286 288 290 291 292 293 294 295 296 296 296 296 297 298 299 299 299 298 299 299 299 299 300 300 301 301 302 302 302 303 303 303 303 304 304 304 304 306 307 309 312 313 312 309 308 309 310 311 313 315 317 319 320 320 321 323 325 326 328
284 284 284 283 282 281 281 280 280 280 281 281 281 282 282 283 283 282 282 282 282 283 283 284 285 287 289 290 292 293 293 294 295 296 296 296 296 297 297 298 298 297 297 298 298 299 299 299 300 300 300 301 301 300 300 300 300 300 301 301 301 302 303 305 306 307 309 311 310 307 306 307 308 308 310 313 315 316 318 318 320 321 323 325 327
285 284 284 283 282 281 280 280 280 281 282 282 283 283 283 282 282 282 282 283 283 284 285 286 288 289 290 292 293 293 294 295 295 296 296 296 296 296 297 297 297 297 297 298 298 298 298 298 299 299 299 299 299 298 298 297 297 298 298 299 300 302 303 304 305 305 306 308 308 305 303 304 305 306 308 310 312 314 315 316 318 319 320 322 324
284 284 283 282 281 280 280 280 280 281 281 281 281 281 281 281 281 281 282 284 285 286 287 288 289 291 292 292 293 294 294 295 295 296 296 296 296 295 296 296 296 296 296 297 297 297 297 297 297 297 297 297 297 296 296 296 296 296 296 297 299 301 302 303 303 302 304 305 305 302 301 302 302 304 306 308 310 312 313 314 315 317 318 320 322
282 282 282 281 281 280 280 279 279 280 280 279 279 279 280 280 281 283 284 285 286 288 289 290 291 291 292 293 293 293 294 294 295 295 295 295 295 294 295 295 295 295 295 295 295 295 296 296 296 296 295 295 295 295 294 295 295 295 296 297 298 299 300 301 300 300 302 303 301 300 300 300 300 302 304 305 307 310 311 312 313 315 316 318 320
281 281 281 280 280 280 279 279 279 279 279 279 279 280 281 282 283 284 286 287 288 289 290 291 291 292 292 292 292 293 293 294 294 294 293 293 293 293 293 293 293 293 294 294 294 294 294 294 294 294 294 294 293 293 293 294 294 294 294 295 296 297 298 297 297 299 301 300 298 297 298 298 299 300 302 303 305 308 309 311 312 313 314 316 318
280 280 280 280 280 279 279 279 279 279 280 280 280 281 282 283 284 285 286 288 289 290 291 291 292 292 292 292 292 292 292 292 292 292 292 292 292 292 291 291 292 292 293 293 293 293 293 293 293 293 293 292 292 292 292 293 292 292 292 292 293 294 294 295 297 298 298 297 296 296 296 297 298 299 300 302 304 306 308 309 310 311 313 314 315
280 279 279 279 279 279 279 280 280 280 280 281 281 282 283 284 285 286 287 289 290 291 291 291 291 291 291 291 291 291 291 291 291 291 291 291 291 290 290 291 291 291 291 292 292 292 292 292 292 291 291 291 291 291 292 291 291 290 290 291 291 291 292 294 296 296 295 294 295 296 295 297 298 298 299 301 303 305 307 308 308 310 312 313 314
278 278 278 278 279 279 279 280 280 280 281 281 282 283 284 285 286 287 289 290 290 291 291 291 290 290 290 290 290 291 291 291 290 290 290 290 290 290 290 290 290 291 291 291 291 291 291 291 290 290 290 290 291 291 290 290 290 289 289 288 289 290 292 293 293 292 292 294 295 294 295 297 297 297 298 300 302 304 305 306 307 309 311 312 313
277 277 277 278 278 278 279 279 280 280 281 282 283 284 285 286 287 288 289 290 290 290 289 289 289 289 289 289 289 289 289 289 290 290 290 290 290 289 290 290 290 290 290 290 290 290 290 290 290 290 290 290 290 289 289 289 288 287 286 287 288 289 290 290 289 289 291 293 292 292 294 295 295 296 298 300 301 303 304 305 306 309 310 312 313
277 277 277 277 278 278 279 279 280 281 282 283 284 285 286 287 287 288 288 288 288 288 288 288 288 288 288 288 288 288 289 289 289 289 289 289 289 289 289 289 290 290 290 290 289 289 289 289 288 288 288 288 288 287 287 287 286 286 286 286 287 288 287 286 285 288 291 290 289 290 292 293 294 296 298 299 300 302 303 304 306 309 310 312 312
277 278 278 279 279 280 281 281 282 283 284 284 285 285 286 286 286 287 287 287 287 287 287 287 287 287 287 288 288 288 289 289 289 289 289 289 289 289 289 289 289 289 289 289 288 288 288 288 287 287 286 286 286 286 286 285 285 284 285 286 286 285 283 282 284 287 289 288 287 288 290 291 293 295 297 298 300 301 302 304 307 309 311 312 312
280 280 281 281 282 282 282 283 283 283 284 284 284 285 285 285 285 285 286 286 286 286 286 286 287 287 287 288 288 288 288 288 288 288 289 289 289 289 289 289 288 288 288 287 287 287 287 287 286 286 286 285 285 285 284 284 283 282 283 284 284 281 279 280 284 286 286 285 286 288 289 290 293 295 296 298 299 301 302 305 307 310 311 312 311
281 281 281 282 282 282 282 283 283 283 283 283 284 284 284 284 284 285 285 285 285 285 286 286 286 287 287 287 287 288 288 288 288 288 288 288 288 288 288 288 288 287 287 287 286 286 286 286 286 285 285 285 285 284 283 282 281 280 281 281 280 278 278 280 283 283 283 284 286 287 289 290 293 294 296 297 299 300 303 305 308 310 312 311 310
Height
5823 5823 5824 5824 5824 5824 5824 5824 5823 5823 5822 5821 5820 5819 5818 5817 5817 5816 5815 5814 5813 5811 5810 5808 5806 5804 5802 5800 5798 5796 5794 5791 5789 5787 5785 5783 5781 5778 5775 5772 5770 5767 5764 5762 5759 5756 5753 5749 5746 5742 5739 5735 5731 5727 5723 5718 5714 5710 5705 5701 5697 5692 5690 5688 5685 5688 5687 5678 5670 5665 5660 5656 5652 5647 5643 5643 5640 5633 5626 5619 5612 5603 5592 5583 5575
5817 5818 5818 5818 5819 5819 5818 5818 5817 5817 5816 5815 5814 5814 5813 5812 5811 5810 5809 5808 5807 5806 5804 5802 5800 5798 5796 5794 5792 5790 5788 5785 5783 5782 5779 5777 5775 5772 5770 5767 5764 5761 5758 5756 5753 5750 5747 5743 5739 5735 5732 5728 5724 5719 5715 5711 5706 5702 5698 5694 5689 5684 5680 5678 5675 5674 5677 5673 5664 5657 5652 5646 5642 5637 5632 5629 5628 5625 5619 5613 5606 5597 5586 5575 5566
5811 5812 5812 5813 5813 5812 5812 5812 5811 5810 5810 5809 5808 5808 5807 5806 5805 5805 5804 5803 5801 5800 5798 5796 5794 5792 5790 5788 5786 5784 5782 5780 5778 5776 5773 5771 5769 5766 5763 5761 5758 5755 5753 5750 5747 5744 5741 5737 5732 5728 5724 5721 5717 5712 5708 5704 5699 5695 5691 5686 5682 5678 5672 5668 5665 5663 5663 5664 5657 5650 5645 5640 5633 5627 5623 5618 5613 5610 5606 5600 5595 5588 5578 5568 5559
5806 5806 5807 5807 5806 5806 5806 5805 5805 5804 5804 5803 5802 5802 5801 5800 5800 5799 5798 5797 5795 5794 5792 5790 5788 5786 5784 5782 5780 5778 5776 5774 5772 5770 5767 5765 5762 5760 5757 5755 5752 5749 5747 5744 5741 5738 5734 5730 5726 5722 5718 5713 5709 5705 5700 5696 5692 5688 5684 5679 5675 5671 5665 5660 5656 5653 5651 5651 5649 5641 5635 5631 5625 5618 5613 5610 5605 5599 5594 5589 5582 5576 5568 5556 5544
5800 5801 5801 5801 5800 5800 5800 5799 5799 5798 5797 5797 5796 5796 5795 5795 5794 5793 5792 5791 5789 5788 5786 5784 5782 5780 5778 5776 5774 5772 5770 5768 5766 5763 5761 5758 5756 5753 5751 5748 5746 5743 5740 5737 5734 5731 5727 5724 5719 5715 5711 5707 5702 5698 5693 5689 5685 5681 5676 5672 5667 5663 5658 5653 5648 5644 5640 5638 5637 5633 5626 5620 5617 5610 5601 5596 5594 5590 5587 5583 5576 5567 5558 5548 5533
5794 5795 5795 5794 5794 5794 5794 5793 5793 5792 5791 5791 5791 5790 5790 5789 5788 5787 5786 5785 5783 5782 5780 5778 5776 5774 5772 5770 5768 5766 5764 5762 5759 5757 5754 5752 5749 5747 5744 5742 5739 5737 5734 5730 5727 5724 5720 5716 5713 5709 5705 5700 5696 5691 5687 5682 5678 5674 5669 5665 5660 5656 5651 5646 5641 5636 5632 5628 5624 5622 5617 5611 5607 5603 5595 5586 5579 5573 5570 5571 5570 5560 5549 5538 5526
5788 5788 5788 5788 5788 5788 5788 5787 5787 5786 5786 5785 5785 5785 5784 5783 5782 5781 5780 5779 5777 5775 5773 5771 5770 5768 5766 5764 5762 5760 5758 5755 5752 5750 5748 5745 5743 5741 5738 5735 5733 5730 5726 5723 5720 5717 5713 5709 5705 5702 5698 5694 5689 5685 5680 5676 5671 5667 5662 5658 5653 5649 5644 5639 5634 5629 5624 5620 5615 5610 5607 5601 5596 5593 5588 5580 5572 5563 5554 5550 5551 5547 5538 5528 5515
5782 5782 5782 5782 5782 5782 5782 5781 5781 5780 5780 5780 5779 5779 5778 5777 5776 5775 5773 5772 5770 5769 5767 5765 5763 5761 5760 5758 5756 5753 5751 5748 5746 5744 5741 5739 5736 5734 5731 5728 5726 5722 5719 5716 5713 5709 5706 5702 5698 5694 5691 5687 5683 5678 5674 5670 5665 5660 5655 5651 5647 5642 5638 5633 5628 5622 5616 5611 5606 5602 5598 5592 5586 5582 5579 5572 5565 5559 5549 5539 5533 5528 5522 5516 5503
5775 5775 5775 5776 5775 5775 5775 5775 5775 5774 5774 5773 5773 5772 5771 5770 5769 5768 5767 5765 5763 5762 5760 5759 5757 5755 5753 5751 5749 5747 5744 5742 5739 5737 5735 5732 5730 5727 5724 5721 5718 5715 5712 5709 5705 5702 5699 5695 5691 5687 5683 5679 5675 5671 5667 5662 5658 5653 5649 5644 5640 5635 5631 5626 5620 5615 5609 5603 5597 5593 5589 5583 5576 5571 5568 5563 5555 5548 5540 5531 5524 5517 5507 5502 5495
5769 5769 5769 5769 5769 5769 5769 5769 5768 5768 5767 5767 5766 5765 5765 5763 5762 5761 5760 5758 5757 5755 5754 5752 5750 5749 5746 5745 5743 5740 5738 5735 5733 5731 5728 5726 5723 5720 5717 5714 5711 5708 5705 5701 5698 5694 5691 5687 5683 5679 5676 5672 5668 5664 5659 5654 5650 5646 5641 5637 5632 5628 5623 5619 5613 5607 5602 5596 5588 5582 5579 5574 5567 5560 5556 5553 5546 5536 5528 5519 5513 5506 5496 5487 5483
5763 5763 5763 5763 5763 5763 5763 5762 5762 5761 5761 5760 5759 5758 5757 5756 5755 5754 5753 5752 5750 5749 5747 5745 5744 5742 5740 5738 5736 5734 5731 5729 5727 5724 5721 5718 5715 5713 5710 5706 5703 5700 5697 5694 5690 5686 5683 5679 5675 5671 5668 5665 5660 5656 5652 5647 5642 5638 5633 5628 5623 5619 5615 5610 5605 5599 5593 5587 5580 5572 5568 5564 5559 5552 5546 5542 5536 5528 5520 5511 5502 5494 5483 5470 5463
5756 5756 5756 5756 5756 5756 5756 5755 5755 5754 5754 5753 5752 5751 5750 5749 5748 5747 5746 5745 5743 5742 5740 5738 5737 5735 5733 5731 5729 5727 5725 5722 5720 5717 5714 5711 5708 5705 5702 5699 5696 5693 5689 5686 5681 5678 5674 5671 5667 5664 5660 5657 5652 5648 5644 5639 5634 5630 5625 5621 5615 5610 5606 5601 5596 5590 5584 5579 5572 5564 5557 5554 5550 5544 5536 5530 5525 5519 5512 5504 5495 5486 5474 5460 5448
5749 5749 5750 5749 5750 5749 5749 5749 5748 5747 5747 5746 5745 5744 5743 5742 5741 5740 5739 5738 5736 5735 5733 5731 5730 5728 5727 5725 5723 5721 5718 5715 5713 5710 5707 5704 5701 5698 5695 5692 5688 5685 5682 5678 5674 5670 5667 5663 5659 5655 5652 5649 5645 5641 5637 5632 5627 5623 5618 5613 5608 5603 5598 5592 5586 5581 5575 5569 5564 5557 5549 5544 5540 5534 5527 5519 5513 5508 5502 5495 5488 5480 5469 5455 5441
5743 5743 5743 5743 5743 5742 5742 5742 5741 5740 5739 5739 5738 5737 5736 5735 5734 5733 5732 5731 5729 5728 5726 5725 5723 5721 5720 5718 5716 5714 5711 5708 5705 5703 5700 5697 5694 5691 5688 5684 5681 5678 5674 5671 5667 5664 5660 5656 5652 5648 5645 5641 5638 5634 5630 5625 5621 5616 5611 5606 5602 5596 5591 5585 5579 5573 5567 5561 5556 5550 5543 5536 5530 5524 5518 5511 5504 5497 5489 5482 5475 5469 5461 5449 5436
5735 5736 5736 5735 5735 5735 5735 5734 5734 5733 5732 5731 5731 5730 5729 5728 5727 5726 5725 5724 5722 5721 5720 5718 5717 5715 5713 5711 5709 5706 5704 5701 5698 5695 5693 5690 5686 5683 5680 5677 5674 5670 5667 5664 5660 5656 5653 5649 5645 5641 5638 5635 5631 5628 5624 5619 5615 5610 5605 5600 5595 5590 5584 5578 5572 5566 5560 5554 5548 5542 5535 5528 5521 5515 5509 5503 5497 5490 5482 5472 5463 5457 5452 5444 5434
5728 5728 5728 5728 5728 5727 5727 5727 5726 5725 5725 5724 5724 5723 5722 5721 5720 5719 5718 5717 5716 5714 5713 5711 5710 5708 5706 5704 5702 5699 5697 5694 5691 5688 5685 5682 5679 5676 5672 5669 5666 5663 5660 5657 5653 5649 5645 5641 5638 5635 5631 5628 5625 5621 5617 5613 5609 5604 5600 5594 5589 5583 5577 5572 5565 5559 5553 5548 5541 5535 5528 5520 5513 5507 5501 5495 5489 5483 5476 5468 5458 5451 5446 5441 5433
5721 5720 5720 5720 5720 5720 5720 5719 5719 5718 5718 5717 5717 5716 5715 5714 5713 5712 5711 5710 5709 5707 5706 5704 5702 5701 5699 5697 5695 5692 5690 5687 5684 5680 5677 5674 5671 5668 5665 5662 5659 5656 5652 5649 5645 5641 5638 5634 5631 5628 5625 5621 5618 5614 5611 5607 5602 5598 5594 5588 5582 5577 5571 5565 5560 5554 5547 5541 5534 5527 5520 5513 5506 5500 5493 5486 5480 5473 5468 5462 5454 5447 5440 5434 5429
5713 5713 5713 5713 5712 5712 5712 5712 5712 5711 5711 5710 5709 5708 5708 5707 5706 5705 5704 5703 5702 5700 5699 5697 5695 5693 5691 5689 5687 5685 5682 5679 5676 5672 5669 5667 5664 5661 5658 5655 5651 5648 5645 5641 5638 5634 5630 5627 5624 5621 5618 5615 5611 5607 5604 5600 5596 5591 5587 5582 5576 5570 5565 5559 5555 5549 5542 5535 5528 5521 5515 5508 5500 5493 5486 5479 5472 5465 5459 5453 5447 5441 5434 5426 5421
5706 5706 5706 5706 5705 5706 5706 5705 5705 5704 5703 5703 5702 5701 5700 5699 5699 5698 5697 5696 5695 5693 5691 5690 5688 5686 5684 5682 5679 5677 5674 5671 5668 5665 5662 5660 5657 5655 5652 5648 5644 5641 5638 5634 5630 5627 5623 5620 5617 5614 5611 5607 5604 5600 5596 5593 5589 5585 5580 5576 5570 5564 5559 5554 5548 5543 5536 5529 5522 5516 5510 5503 5496 5488 5480 5471 5464 5457 5451 5445 5439 5434 5428 5421 5414
5699 5699 5699 5699 5699 5699 5699 5698 5697 5697 5696 5695 5694 5694 5693 5692 5692 5691 5690 5688 5687 5686 5684 5682 5680 5678 5676 5674 5672 5669 5666 5664 5661 5658 5655 5652 5650 5648 5645 5641 5638 5634 5630 5626 5623 5619 5616 5612 5609 5606 5603 5600 5596 5593 5589 5585 5581 5577 5573 5568 5564 5559 5554 5548 5542 5536 5530 5523 5516 5509 5503 5497 5490 5483 5474 5465 5457 5450 5444 5438 5432 5427 5421 5415 5408
5692 5692 5692 5692 5691 5691 5691 5690 5690 5689 5688 5688 5687 5687 5686 5685 5684 5683 5682 5681 5680 5678 5677 5674 5672 5670 5668 5666 5664 5661 5659 5656 5654 5651 5648 5645 5643 5640 5638 5635 5631 5627 5623 5619 5615 5612 5608 5605 5602 5598 5595 5592 5588 5585 5581 5577 5573 5569 5564 5560 5556 5551 5547 5541 5535 5529 5523 5517 5510 5504 5498 5491 5484 5477 5470 5462 5454 5446 5439 5433 5427 5421 5416 5410 5404
5685 5685 5685 5684 5684 5684 5683 5683 5683 5682 5681 5681 5680 5679 5678 5677 5677 5676 5674 5673 5672 5670 5669 5667 5664 5663 5661 5658 5656 5653 5651 5649 5646 5644 5642 5639 5636 5633 5630 5628 5624 5619 5615 5611 5608 5605 5602 5598 5595 5592 5588 5584 5580 5577 5573 5569 5565 5560 5556 5552 5547 5543 5539 5533 5528 5522 5516 5511 5505 5498 5492 5486 5479 5473 5466 5459 5451 5443 5436 5430 5423 5417 5411 5405 5399
5678 5678 5678 5677 5677 5677 5676 5676 5675 5675 5674 5673 5673 5672 5671 5670 5669 5668 5667 5666 5664 5662 5661 5659 5657 5655 5653 5651 5648 5646 5643 5641 5639 5637 5634 5632 5629 5626 5623 5620 5616 5611 5608 5604 5601 5598 5595 5591 5588 5584 5581 5577 5573 5569 5565 5561 5557 5553 5548 5544 5539 5535 5530 5525 5520 5515 5509 5503 5498 5491 5485 5480 5475 5468 5462 5456 5449 5441 5434 5427 5421 5414 5408 5401 5394
5671 5670 5670 5670 5670 5669 5669 5669 5668 5668 5667 5666 5665 5665 5664 5662 5661 5661 5659 5658 5656 5655 5653 5651 5649 5647 5645 5643 5640 5638 5635 5633 5631 5629 5627 5625 5622 5619 5616 5612 5608 5604 5601 5597 5594 5591 5588 5584 5580 5577 5574 5569 5565 5561 5557 5553 5549 5545 5540 5536 5531 5526 5522 5517 5512 5506 5501 5495 5489 5483 5478 5473 5468 5463 5457 5451 5445 5438 5430 5423 5416 5410 5404 5398 5392
5664 5663 5663 5663 5663 5662 5662 5662 5661 5660 5660 5659 5658 5657 5656 5655 5654 5653 5652 5650 5649 5647 5646 5644 5642 5639 5637 5635 5632 5630 5627 5625 5623 5621 5619 5617 5614 5611 5607 5604 5601 5597 5594 5590 5587 5584 5580 5576 5573 5570 5566 5562 5557 5553 5549 5545 5541 5536 5532 5527 5522 5518 5513 5508 5503 5497 5492 5486 5481 5475 5470 5465 5460 5455 5450 5445 5439 5433 5426 5419 5412 5405 5399 5394 5388
5657 5657 5657 5656 5656 5655 5655 5654 5654 5653 5652 5652 5651 5650 5649 5648 5647 5645 5644 5643 5641 5639 5638 5636 5633 5631 5629 5626 5624 5621 5619 5617 5615 5613 5611 5609 5606 5602 5599 5596 5593 5590 5586 5583 5580 5576 5573 5569 5565 5562 5558 5553 5549 5544 5540 5536 5532 5527 5523 5518 5513 5508 5504 5499 5494 5489 5484 5478 5473 5467 5462 5457 5452 5448 5443 5438 5433 5427 5422 5416 5409 5402 5396 5390 5384
5651 5650 5650 5649 5649 5648 5648 5647 5647 5646 5645 5644 5644 5643 5641 5640 5639 5638 5636 5634 5632 5631 5629 5627 5625 5623 5620 5618 5616 5613 5611 5609 5607 5605 5603 5600 5597 5594 5592 5589 5585 5582 5579 5575 5571 5568 5565 5561 5557 5554 5549 5545 5540 5535 5531 5527 5523 5518 5514 5509 5504 5499 5494 5490 5486 5481 5476 5470 5465 5460 5455 5450 5446 5441 5436 5432 5427 5422 5416 5411 5405 5399 5393 5387 5382
5644 5643 5643 5642 5642 5641 5641 5640 5639 5638 5638 5637 5636 5635 5633 5632 5630 5629 5627 5625 5624 5622 5621 5619 5617 5614 5612 5610 5607 5605 5603 5602 5599 5597 5594 5591 5588 5586 5584 5580 5577 5574 5571 5567 5563 5560 5556 5552 5548 5545 5541 5536 5531 5527 5523 5518 5514 5509 5505 5500 5495 5490 5486 5481 5477 5472 5467 5462 5457 5452 5448 5443 5439 5434 5430 5426 5422 5417 5411 5406 5400 5396 5390 5385 5379
5636 5636 5635 5635 5634 5633 5633 5632 5631 5630 5629 5628 5627 5626 5624 5623 5622 5620 5618 5617 5615 5614 5612 5610 5608 5606 5603 5601 5599 5598 5596 5594 5590 5588 5585 5583 5580 5578 5575 5572 5568 5565 5562 5558 5555 5551 5548 5544 5540 5536 5532 5527 5522 5518 5513 5509 5504 5500 5496 5491 5486 5482 5477 5473 5468 5463 5459 5454 5450 5446 5441 5437 5433 5429 5424 5420 5415 5411 5407 5401 5396 5391 5386 5382 5377
5628 5627 5626 5625 5625 5624 5623 5622 5621 5620 5619 5618 5617 5616 5615 5614 5613 5611 5610 5608 5607 5606 5604 5602 5599 5597 5595 5594 5592 5590 5588 5585 5582 5579 5577 5574 5572 5569 5566 5563 5560 5556 5553 5550 5546 5543 5539 5535 5531 5528 5523 5518 5513 5509 5505 5500 5495 5491 5487 5483 5478 5474 5469 5465 5461 5456 5452 5448 5444 5440 5436 5432 5428 5424 5419 5415 5410 5406 5402 5397 5392 5387 5382 5378 5373
5620 5619 5618 5617 5616 5615 5614 5613 5612 5611 5610 5609 5608 5608 5606 5605 5604 5603 5601 5600 5599 5597 5595 5593 5591 5589 5588 5586 5583 5582 5580 5577 5573 5571 5568 5566 5563 5560 5557 5554 5551 5547 5544 5541 5538 5534 5531 5526 5522 5519 5514 5509 5505 5500 5496 5492 5487 5483 5479 5475 5471 5467 5462 5457 5454 5450 5446 5442 5438 5434 5430 5426 5423 5419 5415 5410 5405 5401 5397 5393 5388 5384 5379 5374 5369
5612 5611 5610 5609 5608 5607 5606 5605 5604 5603 5602 5601 5600 5599 5598 5597 5596 5594 5593 5592 5590 5589 5587 5585 5583 5580 5579 5577 5575 5573 5571 5568 5565 5562 5560 5557 5555 5552 5548 5545 5542 5538 5535 5532 5528 5525 5521 5517 5513 5509 5505 5501 5496 5492 5487 5484 5480 5476 5472 5467 5463 5459 5455 5451 5447 5443 5439 5436 5432 5428 5424 5420 5417 5413 5409 5405 5401 5396 5392 5388 5384 5380 5375 5371 5367
5604 5603 5602 5602 5601 5599 5598 5597 5596 5595 5594 5593 5592 5591 5590 5589 5587 5586 5584 5583 5582 5580 5578 5576 5574 5572 5570 5568 5566 5564 5562 5559 5557 5554 5551 5549 5546 5543 5540 5537 5533 5530 5527 5523 5519 5516 5512 5508 5504 5500 5495 5491 5487 5483 5479 5476 5472 5468 5464 5459 5455 5451 5447 5444 5440 5436 5433 5429 5426 5422 5418 5415 5411 5407 5403 5400 5396 5392 5388 5384 5380 5376 5372 5367 5363
5597 5595 5594 5594 5593 5591 5590 5589 5588 5587 5586 5585 5584 5583 5581 5580 5579 5577 5576 5575 5573 5572 5570 5567 5565 5563 5561 5559 5557 5555 5553 5551 5549 5546 5543 5540 5537 5534 5531 5528 5524 5520 5517 5514 5510 5507 5503 5498 5494 5490 5486 5482 5478 5474 5471 5467 5464 5459 5455 5452 5447 5443 5440 5436 5433 5429 5426 5422 5419 5416 5412 5409 5405 5401 5398 5394 5391 5387 5383 5379 5375 5371 5368 5364 5360
5588 5587 5586 5585 5584 5583 5582 5580 5579 5578 5577 5576 5575 5574 5572 5571 5570 5569 5567 5566 5565 5563 5561 5559 5557 5555 5552 5550 5548 5546 5544 5542 5540 5537 5534 5530 5527 5524 5521 5518 5514 5510 5507 5504 5501 5497 5493 5489 5485 5481 5477 5473 5470 5466 5462 5459 5455 5451 5447 5443 5439 5435 5432 5429 5426 5423 5419 5415 5412 5408 5406 5403 5399 5396 5393 5389 5385 5381 5378 5374 5371 5367 5364 5360 5357
5579 5578 5577 5576 5575 5574 5573 5572 5571 5569 5568 5567 5566 5565 5564 5562 5561 5560 5558 5557 5556 5554 5552 5550 5548 5546 5544 5541 5539 5536 5534 5532 5530 5527 5523 5520 5516 5513 5510 5507 5503 5499 5497 5494 5490 5487 5483 5479 5476 5472 5468 5465 5461 5457 5453 5450 5446 5443 5439 5435 5432 5428 5424 5421 5418 5415 5412 5408 5405 5402 5399 5397 5394 5390 5387 5384 5381 5377 5373 5370 5366 5363 5359 5356 5353
5570 5569 5568 5567 5566 5565 5564 5563 5562 5561 5559 5558 5557 5556 5555 5553 5552 5550 5549 5547 5546 5545 5543 5541 5539 5536 5535 5532 5528 5525 5523 5521 5518 5516 5512 5508 5505 5502 5499 5496 5493 5490 5486 5483 5480 5476 5473 5470 5466 5463 5459 5455 5451 5447 5444 5440 5437 5434 5431 5428 5424 5421 5417 5414 5411 5408 5405 5402 5399 5396 5393 5391 5388 5385 5382 5378 5375 5372 5368 5365 5362 5359 5355 5352 5349
5561 5560 5559 5558 5557 5556 5555 5554 5553 5551 5550 5549 5547 5546 5545 5544 5542 5541 5539 5538 5536 5535 5533 5531 5529 5527 5525 5521 5517 5513 5511 5509 5507 5504 5501 5497 5494 5490 5488 5485 5482 5479 5476 5473 5470 5467 5463 5460 5456 5453 5449 5445 5442 5438 5434 5431 5428 5425 5422 5420 5417 5413 5410 5407 5404 5401 5398 5395 5393 5390 5387 5385 5382 5379 5376 5373 5370 5366 5363 5360 5356 5353 5351 5348 5345
5551 5550 5549 5548 5547 5546 5545 5544 5542 5541 5540 5539 5537 5536 5535 5533 5532 5530 5529 5527 5526 5525 5523 5521 5519 5516 5513 5509 5505 5502 5499 5497 5496 5493 5489 5486 5483 5479 5477 5475 5472 5469 5466 5462 5459 5456 5453 5450 5446 5443 5439 5436 5432 5429 5426 5423 5420 5417 5414 5411 5408 5405 5402 5399 5396 5394 5391 5389 5386 5384 5381 5378 5376 5373 5371 5368 5364 5361 5358 5355 5351 5348 5346 5343 5341
5540 5539 5538 5538 5537 5536 5535 5534 5532 5531 5530 5529 5527 5526 5524 5523 5522 5520 5519 5517 5515 5513 5511 5510 5507 5504 5501 5497 5494 5491 5488 5486 5485 5481 5478 5476 5472 5469 5466 5464 5461 5457 5455 5452 5449 5446 5443 5440 5437 5433 5430 5426 5423 5420 5417 5414 5411 5408 5405 5402 5399 5396 5393 5390 5388 5386 5384 5381 5379 5377 5374 5371 5369 5366 5364 5362 5359 5356 5353 5350 5346 5344 5341 5338 5336
5529 5529 5528 5527 5527 5526 5525 5524 5523 5522 5520 5519 5518 5516 5515 5513 5511 5510 5508 5506 5504 5502 5500 5498 5496 5493 5489 5486 5483 5480 5477 5476 5474 5471 5468 5466 5462 5458 5455 5453 5450 5446 5444 5441 5439 5435 5433 5430 5427 5424 5421 5417 5414 5411 5408 5404 5401 5399 5396 5393 5390 5387 5385 5383 5380 5378 5376 5374 5371 5370 5367 5365 5362 5360 5357 5355 5352 5350 5347 5344 5341 5338 5336 5333 5331
5519 5518 5518 5517 5516 5516 5515 5514 5513 5512 5511 5509 5508 5506 5504 5502 5500 5498 5496 5494 5492 5490 5488 5486 5484 5481 5478 5475 5471 5468 5467 5466 5463 5461 5458 5455 5451 5448 5445 5442 5439 5436 5433 5431 5428 5425 5422 5419 5417 5414 5411 5407 5404 5401 5398 5394 5392 5389 5386 5383 5381 5379 5377 5375 5373 5370 5368 5366 5364 5362 5360 5358 5356 5353 5351 5348 5346 5344 5341 5339 5336 5333 5330 5328 5325
5509 5508 5507 5506 5506 5505 5503 5503 5502 5500 5499 5498 5496 5494 5492 5490 5488 5486 5484 5482 5480 5478 5476 5474 5471 5468 5466 5463 5460 5457 5456 5455 5453 5450 5447 5444 5440 5437 5434 5431 5428 5425 5423 5420 5417 5414 5411 5408 5406 5403 5400 5397 5394 5390 5387 5385 5382 5379 5376 5374 5372 5371 5369 5367 5365 5363 5360 5358 5356 5354 5353 5351 5349 5347 5344 5342 5339 5337 5335 5332 5330 5327 5325 5322 5320
5498 5497 5496 5495 5494 5493 5492 5491 5490 5489 5487 5486 5484 5482 5480 5478 5476 5474 5472 5470 5468 5465 5463 5461 5458 5456 5453 5451 5448 5446 5445 5443 5441 5438 5435 5433 5430 5427 5423 5420 5417 5415 5412 5409 5406 5403 5400 5397 5394 5392 5389 5386 5383 5380 5377 5374 5372 5369 5367 5365 5363 5362 5360 5359 5357 5354 5352 5350 5348 5347 5345 5343 5342 5340 5337 5335 5333 5330 5328 5326 5323 5321 5319 5316 5314
5487 5486 5485 5484 5483 5481 5480 5479 5478 5477 5475 5474 5472 5470 5468 5466 5464 5462 5460 5457 5455 5453 5450 5448 5445 5443 5441 5438 5436 5434 5433 5431 5429 5426 5423 5421 5418 5415 5412 5409 5406 5404 5401 5398 5395 5392 5389 5385 5383 5380 5377 5374 5372 5369 5366 5364 5362 5360 5358 5356 5354 5353 5352 5350 5348 5346 5344 5342 5340 5339 5337 5336 5334 5332 5330 5328 5326 5323 5321 5319 5316 5314 5312 5310 5307
5475 5474 5473 5472 5471 5469 5468 5466 5465 5464 5463 5461 5459 5457 5455 5453 5451 5449 5447 5445 5442 5440 5438 5435 5433 5431 5429 5426 5424 5422 5420 5418 5417 5414 5411 5408 5406 5403 5400 5398 5395 5392 5389 5386 5383 5381 5377 5374 5371 5368 5365 5363 5361 5358 5356 5354 5352 5350 5348 5347 5345 5344 5343 5341 5339 5338 5337 5335 5333 5331 5330 5328 5327 5325 5323 5321 5318 5316 5314 5312 5309 5307 5305 5303 5300
5463 5462 5460 5459 5458 5456 5455 5453 5452 5451 5449 5448 5446 5444 5442 5440 5438 5436 5434 5432 5430 5427 5425 5423 5421 5419 5417 5414 5412 5410 5408 5406 5404 5402 5399 5396 5393 5390 5388 5385 5383 5380 5377 5374 5371 5369 5365 5362 5358 5356 5353 5351 5350 5348 5345 5344 5342 5340 5339 5337 5336 5335 5334 5332 5331 5330 5329 5328 5326 5324 5322 5321 5319 5318 5316 5314 5312 5309 5307 5305 5303 5300 5298 5295 5293
5449 5448 5447 5446 5444 5443 5441 5440 5439 5437 5436 5434 5433 5431 5429 5427 5425 5423 5421 5419 5417 5415 5413 5410 5408 5406 5404 5402 5400 5397 5395 5393 5391 5389 5386 5383 5380 5377 5375 5373 5370 5368 5365 5361 5359 5356 5353 5350 5347 5344 5342 5340 5338 5337 5335 5334 5332 5330 5329 5328 5327 5326 5325 5324 5323 5322 5321 5320 5318 5317 5315 5314 5312 5310 5309 5307 5305 5302 5300 5297 5295 5293 5290 5288 5285
5436 5434 5433 5432 5430 5429 5427 5426 5425 5424 5422 5420 5419 5418 5416 5414 5412 5410 5408 5405 5403 5401 5399 5397 5395 5393 5391 5389 5387 5384 5382 5380 5378 5375 5373 5369 5366 5364 5363 5360 5357 5355 5352 5349 5346 5344 5341 5339 5336 5333 5331 5329 5327 5326 5325 5323 5322 5321 5320 5319 5318 5317 5316 5315 5315 5314 5313 5312 5311 5309 5308 5306 5305 5303 5302 5300 5297 5295 5293 5290 5288 5285 5282 5280 5277
5422 5420 5419 5418 5416 5415 5414 5412 5411 5410 5408 5407 5405 5404 5402 5400 5398 5396 5394 5392 5390 5388 5386 5383 5381 5379 5377 5375 5373 5371 5369 5366 5364 5361 5359 5356 5353 5351 5349 5347 5344 5342 5340 5337 5334 5332 5330 5327 5324 5322 5320 5318 5317 5315 5314 5313 5312 5311 5310 5310 5309 5309 5308 5308 5307 5306 5305 5304 5303 5301 5300 5299 5297 5296 5294 5292 5290 5288 5285 5283 5280 5278 5275 5272 5269
5407 5406 5405 5404 5402 5401 5399 5398 5397 5395 5394 5392 5391 5389 5388 5386 5384 5382 5380 5378 5377 5374 5372 5370 5368 5365 5363 5362 5359 5357 5355 5353 5350 5348 5345 5342 5339 5337 5335 5333 5331 5329 5327 5324 5322 5320 5318 5316 5313 5310 5308 5307 5306 5304 5303 5302 5301 5301 5301 5300 5300 5300 5300 5299 5299 5298 5297 5296 5295 5294 5292 5291 5290 5288 5287 5285 5283 5281 5278 5275 5273 5270 5267 5264 5261